Regional Weather Roundup
Issued by NWS

Home | Current Version | Previous Version | Text Only | Print | Product List | Glossary Off
Versions: 1 2 3 4 5 6 7 8 9 10 11 12 13 14 15 16 17 18 19 20 21 22 23 24 25 26 27 28 29 30 31 32 33 34 35 36 37 38 39 40 41 42 43 44 45 46 47 48 49 50

000
ASUS43 KMKX 201600
RWRWI

WISCONSIN REGIONAL WEATHER ROUNDUP
NATIONAL WEATHER SERVICE MILWAUKEE/SULLIVAN WI
1100 AM CDT MON OCT 20 2014

NOTE: "FAIR" INDICATES FEW OR NO CLOUDS BELOW 12,000 FEET WITH NO
SIGNIFICANT WEATHER AND/OR OBSTRUCTIONS TO VISIBILITY.

WIZ001-002-006>008-014>016-023>028-201700-
NORTHWEST WISCONSIN

CITY           SKY/WX    TMP DP  RH WIND       PRES   REMARKS
SUPERIOR ARPT  CLOUDY    49  43  80 NW8       29.98R
ASHLAND        CLOUDY    52  42  69 NW12      29.96R
HAYWARD        MOSUNNY   50  41  71 N8        29.96R
SIREN          CLOUDY    50  42  72 N8        29.98S
CUMBERLAND     CLOUDY    50  41  71 N7        29.97R
RICE LAKE      CLOUDY    51  42  70 NW7       29.98S
CHETEK         CLOUDY    51  44  77 W3        29.96S
LADYSMITH      PTSUNNY   52  42  68 N10       29.95S
EAU CLAIRE     NOT AVBL
MENOMONIE      SUNNY     55  43  65 NW10      29.97S
NEW RICHMOND   SUNNY     54  42  65 N8        29.99R
OSCEOLA        SUNNY     52  44  74 N5        30.02R
$$

WIZ003>005-009-010-017-018-201700-
NORTH CENTRAL WISCONSIN

CITY           SKY/WX    TMP DP  RH WIND       PRES   REMARKS
MANITOWISH WTR CLOUDY    46  44  93 N8        29.90R
ARBOR VITAE    CLOUDY    47  45  93 N9        29.90R
WOODRUFF       CLOUDY    47  45  93 N9        29.90R
RHINELANDER    CLOUDY    46  43  89 VRB6      29.90R
EAGLE RIVER    DRIZZLE   45  44  97 N8        29.89R
LAND O LAKES   DRIZZLE   45  43  92 N7        29.90R
PHILLIPS       CLOUDY    46  42  85 NW7       29.92R
TOMAHAWK       CLOUDY    47  42  82 CALM      29.91R
MEDFORD        PTSUNNY   48  43  81 NW9       29.92R
MERRILL        CLOUDY    49  44  81 NW7       29.90R
$$

WIZ029-030-035-036-043>047-201700-
CENTRAL WISCONSIN

CITY           SKY/WX    TMP DP  RH WIND       PRES   REMARKS
WAUSAU         CLOUDY    50  43  77 NW6       29.89R
MOSINEE        NOT AVBL
MARSHFIELD     MOSUNNY   54  44  69 N13       29.91S
STEVENS POINT  CLOUDY    49  40  73 NW10      29.91R
WAUPACA        CLOUDY    53  45  75 NW9       29.89R
WAUTOMA        NOT AVBL
WISC RAPIDS    CLOUDY    53  43  68 N8        29.93R
CAMP DOUGLAS   NOT AVBL
$$

WIZ011>013-019>022-031-037>040-048>050-201700-
NORTHEAST WISCONSIN

CITY           SKY/WX    TMP DP  RH WIND       PRES   REMARKS
ANTIGO         CLOUDY    45  43  95 N6        29.90R
SHAWANO        CLOUDY    51  46  81 NW6       29.87R
OCONTO         CLOUDY    50  45  83 N6        29.85R
STURGEON BAY   CLOUDY    50  43  76 N9        29.86R
GREEN BAY      CLOUDY    52  45  77 N9        29.86S
MANITOWOC      NOT AVBL
APPLETON       CLOUDY    52  45  76 N13       29.88R
CLINTONVILLE   CLOUDY    50  43  76 NW9       29.88R
OSHKOSH        PTSUNNY   53  45  74 N12       29.87R
$$

WIZ032>034-041-042-053>061-201700-
SOUTHWEST WISCONSIN

CITY           SKY/WX    TMP DP  RH WIND       PRES   REMARKS
LA CROSSE      SUNNY     59  45  59 NW12      29.94F
SPARTA         SUNNY     56  42  59 N10G16    29.94S
VIROQUA        SUNNY     56  43  63 NW12      29.94S
BOSCOBEL       SUNNY     61  44  53 N12       29.95S
PRAIRIE DU CHI SUNNY     56  42  59 NW7       29.96S
PLATTEVILLE    SUNNY     57  45  63 NW10      29.94S
$$

WIZ056-057-062-063-064-067-068-201700-
SOUTH CENTRAL WISCONSIN

CITY           SKY/WX    TMP DP  RH WIND       PRES   REMARKS
REEDSBURG      MOSUNNY   55  44  64 N13       29.91S
BARABOO/DELLS  MOSUNNY   55  41  58 NW7       29.91S
LONE ROCK      NOT AVBL
MINERAL POINT  SUNNY     57  41  54 NW14      29.93R
MADISON        MOSUNNY   58  42  55 N12       29.89F
MIDDLETON      SUNNY     58  41  53 N16       29.90F
WATERTOWN      SUNNY     54  46  72 N13       29.87S
MONROE         SUNNY     55  43  62 NW12G22   29.90R
JANESVILLE     SUNNY     59  45  58 N12       29.87S
$$

WIZ051-052-058>065-066-070>072-201700-
SOUTHEAST WISCONSIN

CITY           SKY/WX    TMP DP  RH WIND       PRES   REMARKS
MILWAUKEE      MOSUNNY   57  46  66 N9        29.85R
WAUKESHA       MOSUNNY   54  45  71 NW13      29.86S
MILWAUKEE/TIMM NOT AVBL
RACINE         CLOUDY    57  46  66 N10       29.86R
BURLINGTON     SUNNY     53  45  74 NW12      29.86R
KENOSHA        CLOUDY    57  47  69 NW7       29.85R
FOND DU LAC    MOSUNNY   55  45  68 N13       29.87S
SHEBOYGAN      CLOUDY    53  45  74 NW7       29.85S
WEST BEND      PTSUNNY   52  43  71 NW8       29.85S
JUNEAU         SUNNY     53  45  74 NW10G17   29.88S
$$

LSZ147-162-201700-
LAKE SUPERIOR

STATION/POSITION TIME  TEMP    WIND        PRES    WAVE
                       AIR SEA DIR/SP/G            HT/PER
                 (UTC) (F)     (DEG/KT/KT) (MB)    (FT/S)
W MID LAKE BUOY  1450   47 46  300/  8/  8 1013.0R   1
DEVILS ISLAND    1500   49     310/ 11/ 12 1014.0R
PORT WING        1500   49     320/ 11/ 13 1014.6R
SAXON HARBOR     1500   51     320/ 11/ 13 1013.5R
$$

LMZ867-665-643>646-201700-
LAKE MICHIGAN

STATION/POSITION TIME  TEMP    WIND        PRES    WAVE
                       AIR SEA DIR/SP/G            HT/PER
                 (UTC) (F)     (DEG/KT/KT) (MB)    (FT/S)
CHAMBERS ISLAND  1500   50     320/ 13/ 15 1010.5R
N MID LAKE BUOY  1450   49 52  330/ 16/ 19 1009.8R   3/ 7
NORTHPORT PIER   1500   49     340/ 13/ 17 1010.2S
KEWAUNEE LAKESHO 1500   51     350/  6/ 10 1009.5R
SHEBOYGAN LAKESH 1500   51 50  330/ 10/ 12 1011.0R
PORT WASHINGTON  1500   55     320/  8/ 13 1011.2R
ATWATER BUOY     1500   53     340/  6/ 10 1011.8R
MILWAUKEE LAKESH 1500   53     350/  9/ 13   N/A
S MID LAKE BUOY  1450   53 55  300/ 10/ 12 1010.2R   3/ 5
KENOSHA   LAKESH 1500   53     310/  7/ 12 1010.5R
$$

TC  - TEMPERATURE IN CELSIUS
VSB - VISIBILITY IN STATUTE MILES
WCI - WIND CHILL INDEX
HX  - HEAT INDEX




USA.gov is the U.S. government's official web portal to all federal, state and local government web resources and services.